2022/10/21 13:20:00, 0.0,25.3
2022/10/21 13:30:00, 0.0,25.1
2022/10/21 13:40:00, 0.0,25.4
2022/10/21 13:50:00, 0.0,24.8
2022/10/21 14:00:00, 0.0,25.3
2022/10/21 14:10:00, 0.0,25.4
2022/10/21 14:20:00, 0.0,26.2
2022/10/21 14:30:00, 0.0,25.2
2022/10/21 14:40:00, 0.0,25.2
2022/10/21 14:50:00, 0.0,24.7
2022/10/21 15:00:00, 0.0,25.3
2022/10/21 15:10:00, 0.0,25.4
2022/10/21 15:20:00, 0.0,24.0
2022/10/21 15:30:00, 0.0,23.4
2022/10/21 15:40:00, 0.0,24.2
2022/10/21 15:50:00, 0.0,24.7
2022/10/21 16:00:00, 0.0,24.7
2022/10/21 16:10:00, 0.0,23.9
2022/10/21 16:20:00, 0.0,23.6
2022/10/21 16:30:00, 0.0,22.8
2022/10/21 16:40:00, 0.0,22.1
2022/10/21 16:50:00, 0.0,20.2
2022/10/21 17:00:00, 0.0,19.5
2022/10/21 17:10:00, 0.0,18.8
2022/10/21 17:20:00, 0.0,18.4
2022/10/21 17:30:00, 0.0,18.0
2022/10/21 17:40:00, 0.0,17.7
2022/10/21 17:50:00, 0.0,17.1
2022/10/21 18:00:00, 0.0,16.7
2022/10/21 18:10:00, 0.0,16.9
2022/10/21 18:20:00, 0.0,16.7
2022/10/21 18:30:00, 0.0,16.6
2022/10/21 18:40:00, 0.0,16.2
2022/10/21 18:50:00, 0.0,15.6
2022/10/21 19:00:00, 0.0,16.2
2022/10/21 19:10:00, 0.0,15.9
2022/10/21 19:20:00, 0.0,16.2
2022/10/21 19:30:00, 0.0,16.5
2022/10/21 19:40:00, 0.0,16.5
2022/10/21 19:50:00, 0.0,16.3
2022/10/21 20:00:00, 0.0,16.1
2022/10/21 20:10:00, 0.0,16.0
2022/10/21 20:20:00, 0.0,16.4
2022/10/21 20:30:00, 0.0,16.3
2022/10/21 20:40:00, 0.0,16.8
2022/10/21 20:50:00, 0.0,16.5
2022/10/21 21:00:00, 0.0,17.3
2022/10/21 21:10:00, 0.0,17.4
2022/10/21 21:20:00, 0.0,17.5
2022/10/21 21:30:00, 0.0,17.4
2022/10/21 21:40:00, 0.0,17.5
2022/10/21 21:50:00, 0.0,17.2
2022/10/21 22:00:00, 0.0,17.3
2022/10/21 22:10:00, 0.0,17.1
2022/10/21 22:20:00, 0.0,16.3
2022/10/21 22:30:00, 0.0,16.4
2022/10/21 22:40:00, 0.0,16.3
2022/10/21 22:50:00, 0.0,16.5
2022/10/21 23:00:00, 0.0,16.5
2022/10/21 23:10:00, 0.0,16.5
2022/10/21 23:20:00, 0.0,16.3
2022/10/21 23:30:00, 0.0,17.0
2022/10/21 23:40:00, 0.0,17.2
2022/10/21 23:50:00, 0.0,17.0
